Terminal Aerodrome Forecast
Issued by NWS

Home | Current Version | Previous Version | Graphics & Text | Print | Product List | Glossary On
Versions: 1 2 3 4 5 6 7 8 9 10 11 12 13 14 15 16 17 18 19
000
FTUS43 KUNR 271742
TAFGCC
TAF
KGCC 271742Z 2718/2818 27005KT P6SM SCT150
     FM272100 27020G30KT P6SM SCT100
      TEMPO 2721/2801 -TSRA BKN060CB
     FM280100 31027G37KT P6SM SCT060
     FM280600 30011KT P6SM SKC=

USA.gov is the U.S. government's official web portal to all federal, state and local government web resources and services.